Location: Cartersville (historical)
(42.9944°N, 93.0869°W)
Time: 16:39:21
(UTC+00:00)

Tiangong - Pass Details

Date: 11 October 2025
Orbit: 385 x 394 km, 41.5° (Epoch: 16 November)

Event Time Altitude Azimuth Distance (km) Brightness Sun altitude
Exits shadow 10:23:15 19° 152° (SSE) 1,047 0.2 -22.3°
Maximum altitude 10:23:16 19° 152° (SSE) 1,047 0.2 -22.3°
Drops below altitude 10° 10:25:40 10° 106° (ESE) 1,461 1.7 -21.9°
Sets 10:28:10 0° 87° (E) 2,326 3.3 -21.5°
